sat.trackr.live / text

‹ back to catalog

TOMORROW-S3

NORAD 62392 · 2024-247R

PAYLOAD ACTIVE UNKNOWN

§ Identity

Operator
Country
US
Launch date
2024-12-21
Launch site
AFWTR
Launch vehicle
Mass (kg)
RCS (m²)

External: N2YO · Heavens-Above · Gunter

§ Orbital elements

Epoch: 2026-09-18T22:47:23.928000Z

Period
94.11 min
Inclination
44.9989°
Eccentricity
0.0002449
Mean motion
15.30152074 rev/d
Perigee alt
473.7 km
Apogee alt
477.0 km
Semi-major
6,853.5 km
B*
1.6101e-4
RAAN
139.6545°
Arg perigee
172.7436°
Mean anomaly
187.3484°
Rev number
9,731

§ Raw data

TOMORROW-S31 62392U 24247R   26261.94958250  .00004486  00000+0  16101-3 0  99932 62392  44.9989 139.6545 0002449 172.7436 187.3484 15.30152074 97312

JSON: /api/v1/satellites/62392 · /tle

For live sub-satellite position, see the globe view (requires WebGL).

§ Visibility from observer

Set your observer location to see the next 7 days of passes ≥ 10°. The values pass through the URL so the page stays shareable.

No JS? Fill the form by hand. The geolocation button needs JavaScript.